Florence, SC

9:00 PM EST on December 03, 2016 (GMT -0500)
Florence Regional

Weather History for KFLO - November, 2012

Change the Weather History Date:

Sunday, November 4, 2012

  Actual Average Record
Temperature  
Mean Temperature 59 °F 59 °F  
Max Temperature 72 °F 71 °F 86 °F (1974)
Min Temperature 45 °F 47 °F 24 °F (1966)
Degree Days  
Heating Degree Days 6 7  
Month to date heating degree days 44 28  
Since 1 July heating degree days 137 145  
Cooling Degree Days 0 1  
Month to date cooling degree days 0 4  
Year to date cooling degree days 2308 2046  
Growing Degree Days 9 (Base 50)    
Moisture  
Dew Point 48 °F    
Average Humidity 71    
Maximum Humidity 93    
Minimum Humidity 49    
Precipitation  
Precipitation 0.02 in 0.09 in 1.44 in (1968)
Month to date precipitation 0.02 0.35  
Year to date precipitation 35.88 37.58  
Snow  
Snow 0.00 in - - ()
Month to date snowfall 0.0  
Snow Depth 0.00 in    
Sea Level Pressure  
Sea Level Pressure 29.96 in    
Wind  
Wind Speed 5 mph (North)    
Max Wind Speed 13 mph    
Max Gust Speed 16 mph    
Visibility 9 miles    
Events Rain , Thunderstorm    
T = Trace of Precipitation, MM = Missing Value Source: NWS Daily Summary

Daily Weather History Graph

Daily Weather History Graph

Search for Another Location

Airport or City:

Trip Planner

Search our weather history database for the weather conditions in past years. The results will help you decide how hot, cold, wet, or windy it might be!

Date:

Astronomy

Nov. 04, 2012 Rise Set
Actual Time 6:41 AM EST 5:22 PM EST
Civil Twilight 6:15 AM EST 5:48 PM EST
Nautical Twilight 5:45 AM EST 6:18 PM EST
Astronomical Twilight 5:16 AM EST 6:47 PM EST
Moon 10:01 PM EST 11:21 AM EST
Length of Visible Light 11h 32m
Length of Day
10h 40m
Waning Gibbous, 72% of the Moon is Illuminated
Nov 4
Waning Gibbous
Nov 6
Last Quarter
Nov 13
New
Nov 20
First Quarter
Nov 28
Full

Hourly Weather History & Observations

Time (EST) Temp. Dew Point Humidity Pressure Visibility Wind Dir Wind Speed Gust Speed Precip Events Conditions
12:53 AM 46.9 °F 42.1 °F 83% 30.03 in 10.0 mi Calm Calm - N/A   Clear
1:53 AM 46.9 °F 42.1 °F 83% 30.02 in 10.0 mi Calm Calm - N/A   Clear
1:53 AM 46.9 °F 42.1 °F 83% 30.00 in 10.0 mi Calm Calm - N/A   Clear
2:53 AM 48.0 °F 44.1 °F 86% 29.99 in 10.0 mi Calm Calm - N/A   Clear
3:53 AM 46.9 °F 44.1 °F 90% 29.99 in 10.0 mi ENE 4.6 mph - N/A   Clear
4:53 AM 46.9 °F 44.1 °F 90% 29.98 in 10.0 mi Calm Calm - N/A   Clear
5:53 AM 46.0 °F 44.1 °F 93% 29.97 in 8.0 mi Calm Calm - N/A   Clear
6:53 AM 46.9 °F 44.1 °F 90% 29.96 in 5.0 mi Calm Calm - N/A   Clear
7:53 AM 53.1 °F 50.0 °F 89% 29.98 in 7.0 mi Calm Calm - N/A   Clear
8:53 AM 59.0 °F 52.0 °F 78% 29.99 in 9.0 mi West 3.5 mph - N/A   Clear
9:53 AM 64.9 °F 53.1 °F 65% 29.98 in 10.0 mi WNW 5.8 mph - N/A   Clear
10:53 AM 68.0 °F 53.1 °F 59% 29.97 in 10.0 mi NW 6.9 mph - N/A   Partly Cloudy
11:53 AM 69.1 °F 52.0 °F 54% 29.95 in 10.0 mi WNW 6.9 mph - N/A   Clear
12:53 PM 71.1 °F 52.0 °F 51% 29.94 in 10.0 mi WNW 6.9 mph - N/A   Clear
1:53 PM 72.0 °F 53.1 °F 51% 29.92 in 10.0 mi Variable 3.5 mph - N/A   Clear
2:53 PM 72.0 °F 52.0 °F 49% 29.91 in 10.0 mi NNE 10.4 mph - N/A   Clear
3:53 PM 69.1 °F 52.0 °F 54% 29.91 in 10.0 mi NNE 8.1 mph - N/A   Clear
4:53 PM 66.0 °F 51.1 °F 59% 29.91 in 10.0 mi NNE 9.2 mph - N/A   Clear
5:53 PM 63.0 °F 50.0 °F 63% 29.92 in 10.0 mi NNE 4.6 mph - N/A   Partly Cloudy
6:53 PM 59.0 °F 48.0 °F 67% 29.94 in 10.0 mi NE 5.8 mph - N/A   Clear
7:23 PM 60.8 °F 48.2 °F 63% 29.96 in 10.0 mi North 4.6 mph - N/A   Mostly Cloudy
7:30 PM 60.8 °F 48.2 °F 63% 30.00 in 10.0 mi WNW 8.1 mph - 0.00 in Rain , Thunderstorm Light Rain
7:41 PM 59.0 °F 48.2 °F 67% 29.97 in 7.0 mi Calm Calm - 0.01 in Rain Light Rain
7:53 PM 57.0 °F 52.0 °F 83% 29.92 in 9.0 mi East 11.5 mph - 0.02 in Rain Light Rain
8:53 PM 55.9 °F 50.0 °F 80% 29.96 in 10.0 mi NE 8.1 mph - 0.00 in   Scattered Clouds
9:53 PM 54.0 °F 48.9 °F 83% 29.97 in 10.0 mi NE 5.8 mph - N/A   Clear
10:53 PM 53.1 °F 46.9 °F 80% 29.98 in 10.0 mi ENE 6.9 mph - N/A   Mostly Cloudy